Weather History for Atka, AK

Change the Weather History Date:

Thursday, April 4, 2013

  Actual Average (PADK) Record (PADK)
Temperature  
Mean Temperature 40 °F -  
Max Temperature 44 °F 39 °F 45 °F (1952)
Min Temperature 35 °F 31 °F 22 °F (1968)
Degree Days  
Heating Degree Days 26    
Moisture  
Dew Point 33 °F    
Average Humidity 78    
Maximum Humidity 93    
Minimum Humidity 57    
Precipitation  
Precipitation 0.00 in - - ()
Sea Level Pressure  
Sea Level Pressure 29.45 in    
Wind  
Wind Speed 15 mph (NNE)    
Max Wind Speed 23 mph    
Max Gust Speed 30 mph    
Visibility 10 miles    
Events      
Averages and records for this station are not official NWS values.
T = Trace of Precipitation, MM = Missing Value Source: NWS Daily Summary

Daily Weather History Graph

Daily Weather History Graph

Search for Another Location

Airport:

Trip Planner

Search our weather history database for the weather conditions in past years. The results will help you decide how hot, cold, wet, or windy it might be!

Date:

Astronomy

Apr. 04, 2013 Rise Set
Actual Time 8:03 AM HADT 9:17 PM HADT
Civil Twilight 7:28 AM HADT 9:51 PM HADT
Nautical Twilight 6:46 AM HADT 10:34 PM HADT
Astronomical Twilight 6:00 AM HADT 11:20 PM HADT
Moon 5:20 AM HADT (4/4) 3:12 PM HADT (4/4)
Length of Visible Light 14h 23m
Length of Day
13h 13m
Waning Crescent, 31% of the Moon is Illuminated
Apr 4
Waning Crescent
Apr 10
New
Apr 18
First Quarter
Apr 25
Full
May 2
Last Quarter

Hourly Weather History & Observations

Time (HADT) Temp. Windchill Dew Point Humidity Pressure Visibility Wind Dir Wind Speed Gust Speed Precip Events Conditions
12:16 AM 35.6 °F 24.5 °F 32.0 °F 87% 29.35 in 2.5 mi East 20.7 mph 29.9 mph N/A   Overcast
12:36 AM 37.4 °F 28.2 °F 35.6 °F 93% 29.35 in 5.0 mi ENE 16.1 mph 24.2 mph N/A   Overcast
12:56 AM 39.2 °F 29.6 °F 33.8 °F 81% 29.35 in 10.0 mi ENE 19.6 mph 25.3 mph N/A   Mostly Cloudy
1:16 AM 39.2 °F 29.6 °F 35.6 °F 87% 29.36 in 9.0 mi ENE 19.6 mph 26.5 mph N/A   Overcast
1:36 AM 39.2 °F 29.0 °F 33.8 °F 81% 29.36 in 9.0 mi ENE 21.9 mph 25.3 mph N/A   Overcast
1:56 AM 39.2 °F 28.7 °F 33.8 °F 81% 29.36 in 10.0 mi ENE 23.0 mph 28.8 mph N/A   Mostly Cloudy
2:16 AM 39.2 °F 29.6 °F 33.8 °F 81% 29.37 in 10.0 mi ENE 19.6 mph 27.6 mph N/A   Mostly Cloudy
2:36 AM 39.2 °F 29.8 °F 33.8 °F 81% 29.38 in 10.0 mi ENE 18.4 mph 27.6 mph N/A   Overcast
2:56 AM 39.2 °F 29.6 °F 33.8 °F 81% 29.39 in 10.0 mi ENE 19.6 mph 26.5 mph N/A   Overcast
3:16 AM 39.2 °F 30.8 °F 33.8 °F 81% 29.39 in 10.0 mi ENE 15.0 mph 21.9 mph N/A   Overcast
3:36 AM 39.2 °F 30.5 °F 33.8 °F 81% 29.40 in 10.0 mi ENE 16.1 mph - N/A   Overcast
3:56 AM 39.2 °F 30.8 °F 32.0 °F 75% 29.40 in 10.0 mi ENE 15.0 mph 19.6 mph N/A   Overcast
4:16 AM 39.2 °F 30.8 °F 33.8 °F 81% 29.41 in 10.0 mi ENE 15.0 mph - N/A   Overcast
4:36 AM 39.2 °F 30.8 °F 33.8 °F 81% 29.42 in 10.0 mi ENE 15.0 mph 19.6 mph N/A   Overcast
4:56 AM 39.2 °F 31.6 °F 33.8 °F 81% 29.42 in 10.0 mi ENE 12.7 mph 20.7 mph N/A   Overcast
5:16 AM 39.2 °F 30.8 °F 33.8 °F 81% 29.43 in 9.0 mi ENE 15.0 mph 19.6 mph N/A   Overcast
5:36 AM 39.2 °F 30.8 °F 33.8 °F 81% 29.43 in 10.0 mi ENE 15.0 mph - N/A   Overcast
5:56 AM 39.2 °F 31.6 °F 33.8 °F 81% 29.44 in 10.0 mi ENE 12.7 mph 17.3 mph N/A   Overcast
6:16 AM 39.2 °F 31.6 °F 33.8 °F 81% 29.44 in 10.0 mi ENE 12.7 mph - N/A   Overcast
6:36 AM 39.2 °F 30.8 °F 33.8 °F 81% 29.44 in 10.0 mi East 15.0 mph - N/A   Overcast
6:56 AM 39.2 °F 31.2 °F 32.0 °F 75% 29.45 in 10.0 mi ENE 13.8 mph - N/A   Overcast
7:36 AM 39.2 °F 30.8 °F 33.8 °F 81% 29.46 in 10.0 mi ENE 15.0 mph 19.6 mph N/A   Overcast
7:56 AM 39.2 °F 32.0 °F 33.8 °F 81% 29.46 in 10.0 mi ENE 11.5 mph - N/A   Overcast
8:16 AM 39.2 °F 32.5 °F 33.8 °F 81% 29.47 in 10.0 mi ENE 10.4 mph - N/A   Overcast
8:36 AM 39.2 °F 31.6 °F 33.8 °F 81% 29.47 in 6.0 mi East 12.7 mph 17.3 mph N/A   Overcast
8:56 AM 37.4 °F 31.4 °F 33.8 °F 87% 29.48 in 5.0 mi East 8.1 mph - N/A   Overcast
9:16 AM 39.2 °F 30.8 °F 33.8 °F 81% 29.48 in 10.0 mi ENE 15.0 mph - N/A   Overcast
9:36 AM 39.2 °F - 33.8 °F 81% 29.49 in 10.0 mi Calm Calm - N/A   Overcast
9:56 AM 39.2 °F 31.2 °F 30.2 °F 70% 29.49 in 10.0 mi East 13.8 mph 19.6 mph N/A   Overcast
10:16 AM 39.2 °F 31.6 °F 33.8 °F 81% 29.49 in 10.0 mi ENE 12.7 mph 24.2 mph N/A   Overcast
10:36 AM 39.2 °F 30.5 °F 35.6 °F 87% 29.50 in 9.0 mi East 16.1 mph - N/A   Overcast
10:56 AM 39.2 °F 30.8 °F 33.8 °F 81% 29.50 in 10.0 mi ENE 15.0 mph - N/A   Overcast
11:16 AM 39.2 °F 33.0 °F 33.8 °F 81% 29.51 in 10.0 mi ENE 9.2 mph - N/A   Mostly Cloudy
11:36 AM 39.2 °F 35.0 °F 33.8 °F 81% 29.50 in 10.0 mi ENE 5.8 mph - N/A   Overcast
11:56 AM 41.0 °F 35.8 °F 33.8 °F 76% 29.50 in 10.0 mi ENE 8.1 mph - N/A   Overcast
12:16 PM 41.0 °F 37.1 °F 32.0 °F 70% 29.51 in 10.0 mi NE 5.8 mph - N/A   Overcast
12:36 PM 41.0 °F 36.4 °F 32.0 °F 70% 29.51 in 10.0 mi NE 6.9 mph - N/A   Overcast
12:56 PM 42.8 °F 37.5 °F 32.0 °F 66% 29.51 in 10.0 mi NE 9.2 mph - N/A   Overcast
1:16 PM 42.8 °F 37.0 °F 32.0 °F 66% 29.51 in 10.0 mi NE 10.4 mph - N/A   Overcast
1:36 PM 42.8 °F 36.6 °F 32.0 °F 66% 29.51 in 10.0 mi NNE 11.5 mph 18.4 mph N/A   Overcast
1:56 PM 42.8 °F 38.0 °F 30.2 °F 61% 29.50 in 10.0 mi ENE 8.1 mph - N/A   Overcast
2:16 PM 42.8 °F 39.3 °F 32.0 °F 66% 29.50 in 10.0 mi WNW 5.8 mph - N/A   Overcast
2:36 PM 42.8 °F 38.6 °F 30.2 °F 61% 29.49 in 10.0 mi ESE 6.9 mph - N/A   Overcast
2:56 PM 42.8 °F 40.1 °F 30.2 °F 61% 29.50 in 10.0 mi SW 4.6 mph - N/A   Mostly Cloudy
3:16 PM 44.6 °F 41.4 °F 30.2 °F 57% 29.49 in 10.0 mi South 5.8 mph - N/A   Mostly Cloudy
3:36 PM 44.6 °F 40.7 °F 30.2 °F 57% 29.49 in 10.0 mi South 6.9 mph - N/A   Mostly Cloudy
3:56 PM 42.8 °F 35.1 °F 30.2 °F 61% 29.48 in 10.0 mi NNW 16.1 mph - N/A   Mostly Cloudy
4:16 PM 42.8 °F 34.8 °F 33.8 °F 70% 29.48 in 10.0 mi NW 17.3 mph 21.9 mph N/A   Partly Cloudy
4:36 PM 42.8 °F 34.8 °F 33.8 °F 70% 29.48 in 10.0 mi NNW 17.3 mph - N/A   Mostly Cloudy
4:56 PM 42.8 °F 34.8 °F 33.8 °F 70% 29.47 in 10.0 mi NNW 17.3 mph - N/A   Mostly Cloudy
5:16 PM 42.8 °F 35.1 °F 32.0 °F 66% 29.47 in 10.0 mi NW 16.1 mph - N/A   Partly Cloudy
5:36 PM 42.8 °F 34.8 °F 32.0 °F 66% 29.46 in 10.0 mi NW 17.3 mph 24.2 mph N/A   Clear
5:56 PM 41.0 °F 31.9 °F 32.0 °F 70% 29.46 in 10.0 mi WNW 19.6 mph 24.2 mph N/A   Clear
6:16 PM 41.0 °F 32.5 °F 30.2 °F 65% 29.46 in 10.0 mi NW 17.3 mph 25.3 mph N/A   Partly Cloudy
6:36 PM 39.2 °F 34.2 °F 32.0 °F 75% 29.46 in 10.0 mi North 6.9 mph - N/A   Mostly Cloudy
6:56 PM 41.0 °F 35.8 °F 32.0 °F 70% 29.46 in 10.0 mi NW 8.1 mph - N/A   Mostly Cloudy
7:16 PM 39.2 °F 32.5 °F 32.0 °F 75% 29.46 in 10.0 mi NW 10.4 mph - N/A   Overcast
7:36 PM 39.2 °F 30.2 °F 33.8 °F 81% 29.46 in 10.0 mi NW 17.3 mph 21.9 mph N/A   Overcast
7:56 PM 39.2 °F 31.2 °F 33.8 °F 81% 29.46 in 10.0 mi WNW 13.8 mph 17.3 mph N/A   Overcast
8:16 PM 37.4 °F 27.5 °F 33.8 °F 87% 29.45 in 10.0 mi NW 18.4 mph 24.2 mph N/A   Overcast
8:36 PM 37.4 °F 27.2 °F 33.8 °F 87% 29.45 in 10.0 mi NW 19.6 mph - N/A   Overcast
8:56 PM 37.4 °F 29.3 °F 33.8 °F 87% 29.45 in 10.0 mi NW 12.7 mph - N/A   Overcast
9:16 PM 37.4 °F 29.8 °F 33.8 °F 87% 29.45 in 10.0 mi WNW 11.5 mph 19.6 mph N/A   Overcast
9:36 PM 37.4 °F 28.5 °F 33.8 °F 87% 29.45 in 10.0 mi NW 15.0 mph 19.6 mph N/A   Mostly Cloudy
9:56 PM 37.4 °F 28.2 °F 33.8 °F 87% 29.45 in 10.0 mi NW 16.1 mph - N/A   Overcast
10:16 PM 37.4 °F 28.5 °F 33.8 °F 87% 29.45 in 10.0 mi NW 15.0 mph - N/A   Overcast
10:36 PM 37.4 °F 29.8 °F 33.8 °F 87% 29.45 in 10.0 mi NW 11.5 mph - N/A   Overcast
10:56 PM 37.4 °F 28.9 °F 33.8 °F 87% 29.45 in 10.0 mi NW 13.8 mph 19.6 mph N/A   Overcast
11:16 PM 37.4 °F 29.3 °F 33.8 °F 87% 29.45 in 10.0 mi NW 12.7 mph - N/A   Overcast
11:36 PM 37.4 °F 29.3 °F 33.8 °F 87% 29.44 in 10.0 mi NW 12.7 mph - N/A   Overcast
11:56 PM 37.4 °F 28.9 °F 33.8 °F 87% 29.44 in 10.0 mi NW 13.8 mph 17.3 mph N/A   Overcast